Time,TemperatureF,DewpointF,PressureIn,WindDirection,WindDirectionDegrees,WindSpeedMPH,WindSpeedGustMPH,Humidity,HourlyPrecipIn,Conditions,Clouds,dailyrainin,SolarRadiationWatts/m^2,SoftwareType,DateUTC
2013-09-11 00:01:00,59.3,57.6,29.81,West,270,12.7,12.7,94,0.03,RA,SKC,0.35,0.0,WeatherDisplay:10.37,2013-09-10 22:01:00,
2013-09-11 00:06:00,59.3,57.6,29.80,SSW,208,10.4,10.4,94,0.03,RA,SKC,0.35,0.0,WeatherDisplay:10.37,2013-09-10 22:06:00,
2013-09-11 00:11:00,59.3,57.6,29.80,West,264,11.5,11.5,94,0.03,RA,SKC,0.36,0.0,WeatherDisplay:10.37,2013-09-10 22:11:00,
2013-09-11 00:16:00,59.4,58.0,29.80,SW,227,11.5,11.5,95,0.04,RA,SKC,0.36,0.0,WeatherDisplay:10.37,2013-09-10 22:16:00,
2013-09-11 00:21:00,59.6,58.2,29.79,WSW,254,11.5,11.5,95,0.04,RA,SKC,0.36,0.0,WeatherDisplay:10.37,2013-09-10 22:21:00,
2013-09-11 00:26:00,59.7,58.3,29.80,NW,306,6.9,6.9,95,0.04,RA,SKC,0.36,0.0,WeatherDisplay:10.37,2013-09-10 22:26:00,
2013-09-11 00:31:00,59.6,58.2,29.80,NW,306,4.0,4.0,95,0.04,RA,SKC,0.36,0.0,WeatherDisplay:10.37,2013-09-10 22:31:00,
2013-09-11 00:36:00,59.5,58.1,29.80,NW,306,3.5,3.5,95,0.04,RA,SKC,0.36,0.0,WeatherDisplay:10.37,2013-09-10 22:36:00,
2013-09-11 00:41:00,59.5,58.1,29.80,NW,306,5.8,5.8,95,0.04,RA,SKC,0.36,0.0,WeatherDisplay:10.37,2013-09-10 22:41:00,
2013-09-11 00:46:00,59.5,58.1,29.80,NW,306,5.8,5.8,95,0.04,RA,SKC,0.37,0.0,WeatherDisplay:10.37,2013-09-10 22:46:00,
2013-09-11 00:51:00,59.5,58.1,29.81,NW,321,4.6,4.6,95,0.05,RA,SKC,0.37,0.0,WeatherDisplay:10.37,2013-09-10 22:51:00,
2013-09-11 00:56:00,59.4,58.0,29.82,North,9,23.0,23.0,95,0.05,RA,SKC,0.37,0.0,WeatherDisplay:10.37,2013-09-10 22:56:00,
2013-09-11 00:58:00,58.1,56.4,29.84,NE,43,19.6,19.6,94,0.05,RA,SKC,0.37,0.0,WeatherDisplay:10.37,2013-09-10 22:58:00,
2013-09-11 01:01:00,58.9,57.5,29.83,North,11,19.6,19.6,95,0.05,RA,SKC,0.37,0.0,WeatherDisplay:10.37,2013-09-10 23:01:00,
2013-09-11 01:06:00,58.2,56.5,29.84,North,355,19.6,19.6,94,0.05,RA,SKC,0.37,0.0,WeatherDisplay:10.37,2013-09-10 23:06:00,
2013-09-11 01:11:00,57.7,56.0,29.84,North,5,19.0,19.0,94,0.05,RA,SKC,0.37,0.0,WeatherDisplay:10.37,2013-09-10 23:11:00,
2013-09-11 01:16:00,57.3,55.6,29.85,NNE,24,18.4,18.4,94,0.05,RA,SKC,0.38,0.0,WeatherDisplay:10.37,2013-09-10 23:16:00,
2013-09-11 01:21:00,57.1,55.4,29.85,North,10,11.5,11.5,94,0.06,RA,SKC,0.38,0.0,WeatherDisplay:10.37,2013-09-10 23:21:00,
2013-09-11 01:26:00,56.6,54.9,29.86,North,11,17.3,17.3,94,0.05,RA,SKC,0.38,0.0,WeatherDisplay:10.37,2013-09-10 23:26:00,
2013-09-11 01:28:00,56.0,54.3,29.87,North,5,17.3,17.3,94,0.05,RA,SKC,0.38,0.0,WeatherDisplay:10.37,2013-09-10 23:28:00,
2013-09-11 01:31:00,56.3,54.6,29.86,NNW,344,17.3,17.3,94,0.05,RA,SKC,0.38,0.0,WeatherDisplay:10.37,2013-09-10 23:31:00,
2013-09-11 01:36:00,56.1,54.4,29.87,North,350,19.0,19.0,94,0.05,RA,SKC,0.38,0.0,WeatherDisplay:10.37,2013-09-10 23:36:00,
2013-09-11 01:46:00,55.8,54.1,29.88,North,351,15.0,15.0,94,0.05,RA,SKC,0.38,0.0,WeatherDisplay:10.37,2013-09-10 23:46:00,
2013-09-11 01:51:00,55.7,54.0,29.88,North,5,18.0,18.0,94,0.06,RA,SKC,0.39,0.0,WeatherDisplay:10.37,2013-09-10 23:51:00,
2013-09-11 01:56:00,55.5,53.8,29.89,North,350,14.0,14.0,94,0.06,RA,SKC,0.39,0.0,WeatherDisplay:10.37,2013-09-10 23:56:00,
2013-09-11 02:01:00,55.3,53.6,29.90,NNW,342,19.6,19.6,94,0.05,,SKC,0.39,0.0,WeatherDisplay:10.37,2013-09-11 00:01:00,
2013-09-11 02:06:00,55.3,53.6,29.90,North,355,17.3,17.3,94,0.05,,SKC,0.39,0.0,WeatherDisplay:10.37,2013-09-11 00:06:00,
2013-09-11 02:11:00,55.2,53.5,29.90,NNW,345,16.0,16.0,94,0.04,,SKC,0.39,0.0,WeatherDisplay:10.37,2013-09-11 00:11:00,
2013-09-11 02:16:00,55.1,53.4,29.91,North,355,13.8,13.8,94,0.04,,SKC,0.39,0.0,WeatherDisplay:10.37,2013-09-11 00:16:00,
2013-09-11 02:21:00,55.0,53.3,29.91,NNW,346,16.1,16.1,94,0.04,,SKC,0.39,0.0,WeatherDisplay:10.37,2013-09-11 00:21:00,
2013-09-11 02:26:00,55.0,53.3,29.91,NNE,24,11.5,11.5,94,0.04,RA,SKC,0.39,0.0,WeatherDisplay:10.37,2013-09-11 00:26:00,
2013-09-11 02:31:00,54.9,53.5,29.91,North,5,9.2,9.2,95,0.04,RA,SKC,0.39,0.0,WeatherDisplay:10.37,2013-09-11 00:31:00,
2013-09-11 02:36:00,54.9,53.2,29.91,North,355,11.5,11.5,94,0.03,,SKC,0.39,0.0,WeatherDisplay:10.37,2013-09-11 00:36:00,
2013-09-11 02:41:00,54.8,53.1,29.92,NNW,344,10.4,10.4,94,0.02,,SKC,0.39,0.0,WeatherDisplay:10.37,2013-09-11 00:41:00,
2013-09-11 02:46:00,54.8,53.4,29.92,NNW,334,10.4,10.4,95,0.02,,SKC,0.39,0.0,WeatherDisplay:10.37,2013-09-11 00:46:00,
2013-09-11 02:51:00,54.7,53.3,29.91,NNW,338,9.2,9.2,95,0.01,,SKC,0.39,0.0,WeatherDisplay:10.37,2013-09-11 00:51:00,
2013-09-11 02:56:00,54.6,53.2,29.91,NNW,336,9.0,9.0,95,0.01,,SKC,0.39,0.0,WeatherDisplay:10.37,2013-09-11 00:56:00,
2013-09-11 03:01:00,54.6,53.2,29.91,North,350,8.1,8.1,95,0.01,,SKC,0.40,0.0,WeatherDisplay:10.37,2013-09-11 01:01:00,
2013-09-11 03:06:00,54.6,53.2,29.92,NNW,338,10.4,10.4,95,0.02,RA,SKC,0.40,0.0,WeatherDisplay:10.37,2013-09-11 01:06:00,
2013-09-11 03:11:00,54.6,53.2,29.92,NNW,332,10.4,10.4,95,0.02,RA,SKC,0.40,0.0,WeatherDisplay:10.37,2013-09-11 01:11:00,
2013-09-11 03:16:00,54.7,53.0,29.92,NNW,341,8.1,8.1,94,0.02,,SKC,0.40,0.0,WeatherDisplay:10.37,2013-09-11 01:16:00,
2013-09-11 03:21:00,54.7,53.0,29.92,NNW,339,6.0,6.0,94,0.02,,SKC,0.40,0.0,WeatherDisplay:10.37,2013-09-11 01:21:00,
2013-09-11 03:26:00,54.7,53.0,29.93,NNW,340,6.9,6.9,94,0.01,,SKC,0.40,0.0,WeatherDisplay:10.37,2013-09-11 01:26:00,
2013-09-11 03:31:00,54.7,53.0,29.93,NNW,340,4.6,4.6,94,0.01,,SKC,0.40,0.0,WeatherDisplay:10.37,2013-09-11 01:31:00,
2013-09-11 03:36:00,54.7,53.0,29.93,NNW,340,6.9,6.9,94,0.01,,SKC,0.40,0.0,WeatherDisplay:10.37,2013-09-11 01:36:00,
2013-09-11 03:41:00,54.7,53.0,29.93,NNW,340,5.8,5.8,94,0.02,RA,SKC,0.41,0.0,WeatherDisplay:10.37,2013-09-11 01:41:00,
2013-09-11 03:46:00,54.7,53.0,29.93,NNW,340,3.5,3.5,94,0.02,RA,SKC,0.41,0.0,WeatherDisplay:10.37,2013-09-11 01:46:00,
2013-09-11 03:51:00,54.7,53.0,29.93,NNW,339,5.8,5.8,94,0.02,,SKC,0.41,0.0,WeatherDisplay:10.37,2013-09-11 01:51:00,
2013-09-11 03:56:00,54.7,53.0,29.93,NNW,339,4.6,4.6,94,0.02,,SKC,0.41,0.0,WeatherDisplay:10.37,2013-09-11 01:56:00,
2013-09-11 04:01:00,54.8,53.1,29.94,NNW,339,3.5,3.5,94,0.02,,SKC,0.41,0.0,WeatherDisplay:10.37,2013-09-11 02:01:00,
2013-09-11 04:06:00,54.9,53.2,29.94,NNW,339,3.5,3.5,94,0.01,,SKC,0.41,0.0,WeatherDisplay:10.37,2013-09-11 02:06:00,
2013-09-11 04:11:00,54.9,53.2,29.94,NNW,339,3.5,3.5,94,0.01,,SKC,0.41,0.0,WeatherDisplay:10.37,2013-09-11 02:11:00,
2013-09-11 04:16:00,55.0,53.3,29.94,NNW,338,4.6,4.6,94,0.01,,SKC,0.41,0.0,WeatherDisplay:10.37,2013-09-11 02:16:00,
2013-09-11 04:21:00,55.1,53.4,29.94,NNW,338,4.6,4.6,94,0.02,RA,SKC,0.42,0.0,WeatherDisplay:10.37,2013-09-11 02:21:00,
2013-09-11 04:26:00,55.2,53.5,29.94,NNW,338,5.8,5.8,94,0.02,RA,SKC,0.42,0.0,WeatherDisplay:10.37,2013-09-11 02:26:00,
2013-09-11 04:31:00,55.4,53.7,29.94,NNW,338,5.8,5.8,94,0.02,,SKC,0.42,0.0,WeatherDisplay:10.37,2013-09-11 02:31:00,
2013-09-11 04:36:00,55.7,54.0,29.95,NNW,338,4.6,4.6,94,0.02,,SKC,0.42,0.0,WeatherDisplay:10.37,2013-09-11 02:36:00,
2013-09-11 04:41:00,55.9,54.2,29.94,NNW,338,6.9,6.9,94,0.02,,SKC,0.42,0.0,WeatherDisplay:10.37,2013-09-11 02:41:00,
2013-09-11 04:46:00,56.2,54.5,29.94,NNW,339,5.8,5.8,94,0.01,,SKC,0.42,0.0,WeatherDisplay:10.37,2013-09-11 02:46:00,
2013-09-11 04:51:00,56.4,54.7,29.94,NNW,339,5.8,5.8,94,0.01,,SKC,0.42,0.0,WeatherDisplay:10.37,2013-09-11 02:51:00,
2013-09-11 04:56:00,56.7,54.7,29.95,NNW,340,7.0,7.0,93,0.01,,SKC,0.42,0.0,WeatherDisplay:10.37,2013-09-11 02:56:00,
2013-09-11 05:01:00,56.8,54.8,29.96,North,5,11.5,11.5,93,0.02,RA,SKC,0.43,0.0,WeatherDisplay:10.37,2013-09-11 03:01:00,
2013-09-11 05:06:00,56.7,54.7,29.96,North,5,21.0,21.0,93,0.02,RA,SKC,0.43,0.0,WeatherDisplay:10.37,2013-09-11 03:06:00,
2013-09-11 05:11:00,56.8,54.8,29.96,North,5,12.7,12.7,93,0.02,,SKC,0.43,0.0,WeatherDisplay:10.37,2013-09-11 03:11:00,
2013-09-11 05:16:00,56.8,54.8,29.96,NNW,340,13.8,13.8,93,0.02,,SKC,0.43,0.0,WeatherDisplay:10.37,2013-09-11 03:16:00,
2013-09-11 05:21:00,56.8,54.8,29.96,NNW,348,8.1,8.1,93,0.02,,SKC,0.43,0.0,WeatherDisplay:10.37,2013-09-11 03:21:00,
2013-09-11 05:26:00,56.8,54.8,29.97,NNW,345,11.5,11.5,93,0.01,,SKC,0.43,0.0,WeatherDisplay:10.37,2013-09-11 03:26:00,
2013-09-11 05:31:00,56.9,54.9,29.96,NNW,330,12.7,12.7,93,0.01,,SKC,0.43,0.0,WeatherDisplay:10.37,2013-09-11 03:31:00,
2013-09-11 05:36:00,56.9,54.9,29.96,NW,326,6.9,6.9,93,0.01,,SKC,0.43,0.0,WeatherDisplay:10.37,2013-09-11 03:36:00,
2013-09-11 05:41:00,56.9,54.9,29.96,NNW,327,10.4,10.4,93,0.02,RA,SKC,0.43,0.0,WeatherDisplay:10.37,2013-09-11 03:41:00,
2013-09-11 05:46:00,56.9,55.2,29.96,NW,324,6.9,6.9,94,0.02,RA,SKC,0.43,0.0,WeatherDisplay:10.37,2013-09-11 03:46:00,
2013-09-11 05:51:00,56.9,55.2,29.96,NW,326,9.2,9.2,94,0.02,,SKC,0.43,0.0,WeatherDisplay:10.37,2013-09-11 03:51:00,
2013-09-11 05:56:00,57.0,55.3,29.96,North,355,9.2,9.2,94,0.02,,SKC,0.43,0.0,WeatherDisplay:10.37,2013-09-11 03:56:00,
2013-09-11 06:01:00,57.2,55.5,29.97,NNW,342,15.0,15.0,94,0.01,,SKC,0.43,0.0,WeatherDisplay:10.37,2013-09-11 04:01:00,
2013-09-11 06:03:00,57.3,55.6,29.97,NW,323,11.5,11.5,94,0.01,,SKC,0.43,0.0,WeatherDisplay:10.37,2013-09-11 04:03:00,
2013-09-11 06:04:00,57.3,55.6,29.97,NW,320,11.5,11.5,94,0.01,,SKC,0.43,0.0,WeatherDisplay:10.37,2013-09-11 04:04:00,
2013-09-11 06:05:00,57.3,55.6,29.97,NW,319,9.2,9.2,94,0.01,,SKC,0.43,0.0,WeatherDisplay:10.37,2013-09-11 04:05:00,
2013-09-11 06:10:00,57.2,55.5,29.97,NW,321,5.8,5.8,94,0.01,,SKC,0.43,0.0,WeatherDisplay:10.37,2013-09-11 04:10:00,
2013-09-11 06:11:00,57.2,55.5,29.97,NW,320,6.9,6.9,94,0.01,,SKC,0.43,0.0,WeatherDisplay:10.37,2013-09-11 04:11:00,
2013-09-11 06:16:00,57.2,55.5,29.97,NW,322,3.5,3.5,94,0.01,,SKC,0.43,0.0,WeatherDisplay:10.37,2013-09-11 04:16:00,
2013-09-11 06:17:00,57.2,55.5,29.97,NW,322,4.0,4.0,94,0.01,,SKC,0.43,0.0,WeatherDisplay:10.37,2013-09-11 04:17:00,
2013-09-11 06:22:00,57.3,55.6,29.97,NW,323,5.8,5.8,94,0.02,RA,SKC,0.44,0.0,WeatherDisplay:10.37,2013-09-11 04:22:00,
2013-09-11 06:27:00,57.3,55.6,29.97,NW,323,5.8,5.8,94,0.02,RA,SKC,0.44,0.0,WeatherDisplay:10.37,2013-09-11 04:27:00,
2013-09-11 06:32:00,57.3,55.6,29.98,NW,323,4.6,4.6,94,0.02,,SKC,0.44,0.0,WeatherDisplay:10.37,2013-09-11 04:32:00,
2013-09-11 06:37:00,57.3,55.6,29.97,NNE,13,11.5,11.5,94,0.02,,SKC,0.44,0.0,WeatherDisplay:10.37,2013-09-11 04:37:00,
2013-09-11 06:42:00,57.3,55.6,29.97,North,5,5.8,5.8,94,0.01,,SKC,0.44,0.0,WeatherDisplay:10.37,2013-09-11 04:42:00,
2013-09-11 06:47:00,57.3,55.6,29.97,North,5,4.6,4.6,94,0.01,,SKC,0.44,0.0,WeatherDisplay:10.37,2013-09-11 04:47:00,
2013-09-11 06:52:00,57.2,55.5,29.97,North,5,2.3,2.3,94,0.01,,SKC,0.44,0.0,WeatherDisplay:10.37,2013-09-11 04:52:00,
2013-09-11 06:57:00,57.2,55.5,29.97,North,5,3.5,3.5,94,0.01,,SKC,0.44,0.0,WeatherDisplay:10.37,2013-09-11 04:57:00,
2013-09-11 07:02:00,57.1,55.4,29.98,North,360,3.5,3.5,94,0.02,RA,SKC,0.45,0.0,WeatherDisplay:10.37,2013-09-11 05:02:00,
2013-09-11 07:07:00,57.1,55.4,29.97,NW,317,10.0,10.0,94,0.02,RA,SKC,0.45,0.0,WeatherDisplay:10.37,2013-09-11 05:07:00,
2013-09-11 07:12:00,57.1,55.4,29.98,NNW,330,9.2,9.2,94,0.02,,SKC,0.45,0.0,WeatherDisplay:10.37,2013-09-11 05:12:00,
2013-09-11 07:17:00,57.3,55.6,29.98,NW,321,9.2,9.2,94,0.02,,SKC,0.45,0.0,WeatherDisplay:10.37,2013-09-11 05:17:00,
2013-09-11 07:22:00,57.6,55.6,29.98,NW,321,10.0,10.0,93,0.01,,SKC,0.45,5.0,WeatherDisplay:10.37,2013-09-11 05:22:00,
2013-09-11 07:27:00,58.0,55.7,29.97,NNW,327,11.5,11.5,92,0.01,,SKC,0.45,7.1,WeatherDisplay:10.37,2013-09-11 05:27:00,
2013-09-11 07:32:00,58.3,55.4,29.98,NW,315,9.2,9.2,90,0.01,,SKC,0.45,11.1,WeatherDisplay:10.37,2013-09-11 05:32:00,
2013-09-11 07:37:00,58.4,55.2,29.98,NW,309,11.5,11.5,89,0.01,,SKC,0.45,14.1,WeatherDisplay:10.37,2013-09-11 05:37:00,
2013-09-11 07:42:00,58.6,55.1,29.98,NW,306,13.8,13.8,88,0.02,RA,SKC,0.46,14.1,WeatherDisplay:10.37,2013-09-11 05:42:00,
2013-09-11 07:47:00,58.8,55.3,29.98,NW,321,17.3,17.3,88,0.02,RA,SKC,0.46,16.2,WeatherDisplay:10.37,2013-09-11 05:47:00,
2013-09-11 07:52:00,59.1,54.9,29.98,NNW,328,15.0,15.0,86,0.02,BKN,SKC,0.46,19.2,WeatherDisplay:10.37,2013-09-11 05:52:00,
2013-09-11 07:57:00,59.1,54.9,29.98,NW,323,6.9,6.9,86,0.02,BKN,SKC,0.46,32.3,WeatherDisplay:10.37,2013-09-11 05:57:00,
2013-09-11 08:02:00,59.3,54.8,29.99,NW,313,11.5,11.5,85,0.01,BKN,SKC,0.46,44.4,WeatherDisplay:10.37,2013-09-11 06:02:00,
2013-09-11 08:07:00,59.4,54.9,29.99,NW,309,15.0,15.0,85,0.01,BKN,SKC,0.46,39.4,WeatherDisplay:10.37,2013-09-11 06:07:00,
2013-09-11 08:12:00,59.4,54.9,29.99,NW,312,10.4,10.4,85,0.01,BKN,SKC,0.46,35.4,WeatherDisplay:10.37,2013-09-11 06:12:00,
2013-09-11 08:17:00,59.3,54.8,29.99,NW,322,13.0,13.0,85,0.01,BKN,SKC,0.46,33.3,WeatherDisplay:10.37,2013-09-11 06:17:00,
2013-09-11 08:22:00,59.5,54.7,29.99,NW,323,8.1,8.1,84,0.01,BKN,SKC,0.46,32.3,WeatherDisplay:10.37,2013-09-11 06:22:00,
2013-09-11 08:27:00,59.4,54.6,29.99,NW,317,10.4,10.4,84,0.02,RA,SKC,0.46,40.4,WeatherDisplay:10.37,2013-09-11 06:27:00,
2013-09-11 08:32:00,59.4,54.6,29.99,NW,311,10.4,10.4,84,0.02,RA,SKC,0.46,40.4,WeatherDisplay:10.37,2013-09-11 06:32:00,
2013-09-11 08:37:00,59.6,54.8,29.99,NW,319,17.3,17.3,84,0.02,BKN,SKC,0.46,99.0,WeatherDisplay:10.37,2013-09-11 06:37:00,
2013-09-11 08:42:00,59.8,54.6,29.99,NW,317,13.8,13.8,83,0.01,BKN,SKC,0.46,161.6,WeatherDisplay:10.37,2013-09-11 06:42:00,
2013-09-11 08:47:00,60.1,54.9,29.99,NW,313,9.2,9.2,83,0.01,BKN,SKC,0.46,179.8,WeatherDisplay:10.37,2013-09-11 06:47:00,
2013-09-11 08:52:00,60.4,54.9,29.98,WNW,300,11.5,11.5,82,0.01,BKN,SKC,0.46,194.9,WeatherDisplay:10.37,2013-09-11 06:52:00,
2013-09-11 08:57:00,60.8,54.9,29.99,NNW,329,15.0,15.0,81,0.01,BKN,SKC,0.46,213.1,WeatherDisplay:10.37,2013-09-11 06:57:00,
2013-09-11 09:02:00,61.2,55.3,29.99,NW,308,10.4,10.4,81,0.01,BKN,SKC,0.46,227.3,WeatherDisplay:10.37,2013-09-11 07:02:00,
2013-09-11 09:07:00,61.4,55.2,29.99,NW,311,6.9,6.9,80,0.02,RA,SKC,0.47,245.4,WeatherDisplay:10.37,2013-09-11 07:07:00,
2013-09-11 09:12:00,61.7,55.5,29.99,NW,305,12.0,12.0,80,0.02,RA,SKC,0.47,262.6,WeatherDisplay:10.37,2013-09-11 07:12:00,
2013-09-11 09:17:00,61.9,55.7,29.99,NW,315,10.4,10.4,80,0.02,BKN,SKC,0.47,273.7,WeatherDisplay:10.37,2013-09-11 07:17:00,
2013-09-11 09:22:00,62.2,55.6,29.99,NW,313,8.1,8.1,79,0.02,BKN,SKC,0.47,285.8,WeatherDisplay:10.37,2013-09-11 07:22:00,
2013-09-11 09:27:00,62.3,55.4,29.99,NNW,335,12.0,12.0,78,0.01,BKN,SKC,0.47,296.9,WeatherDisplay:10.37,2013-09-11 07:27:00,
2013-09-11 09:32:00,62.4,55.4,29.99,WNW,301,13.0,13.0,78,0.01,SCT,SKC,0.47,326.2,WeatherDisplay:10.37,2013-09-11 07:32:00,
2013-09-11 09:37:00,62.5,55.2,30.00,NW,319,10.4,10.4,77,0.01,BKN,SKC,0.47,337.3,WeatherDisplay:10.37,2013-09-11 07:37:00,
2013-09-11 09:42:00,62.7,55.7,30.00,NNW,335,12.0,12.0,78,0.01,SCT,SKC,0.47,419.1,WeatherDisplay:10.37,2013-09-11 07:42:00,
2013-09-11 09:47:00,63.0,56.0,30.00,NW,316,8.1,8.1,78,0.01,FEW,SKC,0.47,412.1,WeatherDisplay:10.37,2013-09-11 07:47:00,
2013-09-11 09:52:00,63.1,55.8,30.00,NW,308,11.0,11.0,77,0.02,RA,SKC,0.48,400.0,WeatherDisplay:10.37,2013-09-11 07:52:00,
2013-09-11 09:57:00,63.3,56.3,30.00,NW,322,9.0,9.0,78,0.02,RA,SKC,0.48,419.1,WeatherDisplay:10.37,2013-09-11 07:57:00,
2013-09-11 10:02:00,63.4,56.1,30.00,NW,311,11.5,11.5,77,0.02,FEW,SKC,0.48,498.9,WeatherDisplay:10.37,2013-09-11 08:02:00,
2013-09-11 10:07:00,63.5,55.8,30.00,NNW,329,16.1,16.1,76,0.01,FEW,SKC,0.48,328.3,WeatherDisplay:10.37,2013-09-11 08:07:00,
2013-09-11 10:12:00,63.2,55.5,30.00,NW,308,12.7,12.7,76,0.01,BKN,SKC,0.48,305.0,WeatherDisplay:10.37,2013-09-11 08:12:00,
2013-09-11 10:17:00,63.1,55.8,30.00,NNW,332,18.4,18.4,77,0.01,BKN,SKC,0.48,202.0,WeatherDisplay:10.37,2013-09-11 08:17:00,
2013-09-11 10:22:00,62.9,55.9,30.00,WNW,290,13.8,13.8,78,0.01,BKN,SKC,0.48,179.8,WeatherDisplay:10.37,2013-09-11 08:22:00,
2013-09-11 10:27:00,62.7,56.1,30.00,NW,314,12.7,12.7,79,0.01,BKN,SKC,0.48,179.8,WeatherDisplay:10.37,2013-09-11 08:27:00,
2013-09-11 10:32:00,62.6,56.7,30.00,NW,320,11.5,11.5,81,0.01,BKN,SKC,0.48,163.6,WeatherDisplay:10.37,2013-09-11 08:32:00,
2013-09-11 10:37:00,62.6,56.0,30.00,NW,319,8.1,8.1,79,0.01,BKN,SKC,0.48,108.1,WeatherDisplay:10.37,2013-09-11 08:37:00,
2013-09-11 10:42:00,62.5,55.9,30.00,NW,314,15.0,15.0,79,0.02,RA,SKC,0.49,182.8,WeatherDisplay:10.37,2013-09-11 08:42:00,
2013-09-11 10:47:00,62.5,55.9,30.00,NW,325,9.2,9.2,79,0.02,RA,SKC,0.49,211.1,WeatherDisplay:10.37,2013-09-11 08:47:00,
2013-09-11 10:52:00,62.6,56.3,30.00,NW,326,13.0,13.0,80,0.02,BKN,SKC,0.49,211.1,WeatherDisplay:10.37,2013-09-11 08:52:00,
2013-09-11 10:57:00,62.7,56.1,30.00,NW,315,12.7,12.7,79,0.01,BKN,SKC,0.49,202.0,WeatherDisplay:10.37,2013-09-11 08:57:00,
2013-09-11 11:02:00,62.8,56.2,30.00,NW,314,11.5,11.5,79,0.01,BKN,SKC,0.49,246.4,WeatherDisplay:10.37,2013-09-11 09:02:00,
2013-09-11 11:07:00,62.9,55.9,30.00,NW,319,12.7,12.7,78,0.01,BKN,SKC,0.49,381.8,WeatherDisplay:10.37,2013-09-11 09:07:00,
2013-09-11 11:12:00,63.0,56.4,30.00,NNW,337,13.8,13.8,79,0.01,BKN,SKC,0.49,142.4,WeatherDisplay:10.37,2013-09-11 09:12:00,
2013-09-11 11:17:00,62.8,56.9,30.00,NW,306,17.3,17.3,81,0.01,BKN,SKC,0.49,135.3,WeatherDisplay:10.37,2013-09-11 09:17:00,
2013-09-11 11:22:00,62.3,57.4,30.00,NW,314,9.2,9.2,84,0.01,BKN,SKC,0.49,222.2,WeatherDisplay:10.37,2013-09-11 09:22:00,
2013-09-11 11:27:00,61.9,57.0,30.00,NNW,332,14.0,14.0,84,0.02,RA,SKC,0.50,191.9,WeatherDisplay:10.37,2013-09-11 09:27:00,
2013-09-11 11:32:00,61.7,56.8,30.00,NNW,327,15.0,15.0,84,0.02,RA,SKC,0.50,182.8,WeatherDisplay:10.37,2013-09-11 09:32:00,
2013-09-11 11:37:00,61.6,56.7,30.00,NNW,329,11.5,11.5,84,0.02,BKN,SKC,0.50,201.0,WeatherDisplay:10.37,2013-09-11 09:37:00,
2013-09-11 11:42:00,61.6,56.4,30.00,NW,315,15.0,15.0,83,0.01,BKN,SKC,0.50,209.1,WeatherDisplay:10.37,2013-09-11 09:42:00,
2013-09-11 11:47:00,61.6,56.0,30.00,NW,317,19.6,19.6,82,0.01,BKN,SKC,0.50,232.3,WeatherDisplay:10.37,2013-09-11 09:47:00,
2013-09-11 11:52:00,61.6,56.0,30.00,NW,309,15.0,15.0,82,0.01,BKN,SKC,0.50,220.2,WeatherDisplay:10.37,2013-09-11 09:52:00,
2013-09-11 11:57:00,61.5,55.6,30.01,NW,309,12.7,12.7,81,0.01,BKN,SKC,0.50,199.0,WeatherDisplay:10.37,2013-09-11 09:57:00,
2013-09-11 12:02:00,61.5,55.6,30.00,NW,317,17.3,17.3,81,0.01,BKN,SKC,0.50,209.1,WeatherDisplay:10.37,2013-09-11 10:02:00,
2013-09-11 12:07:00,61.6,56.0,30.00,WNW,298,16.1,16.1,82,0.01,BKN,SKC,0.50,245.4,WeatherDisplay:10.37,2013-09-11 10:07:00,
2013-09-11 12:12:00,61.6,55.7,30.01,NW,309,13.8,13.8,81,0.01,BKN,SKC,0.50,239.4,WeatherDisplay:10.37,2013-09-11 10:12:00,
2013-09-11 12:17:00,61.7,55.8,30.01,NW,318,15.0,15.0,81,0.01,BKN,SKC,0.50,271.7,WeatherDisplay:10.37,2013-09-11 10:17:00,
2013-09-11 12:22:00,61.6,55.7,30.00,NW,306,16.1,16.1,81,0.02,RA,SKC,0.50,243.4,WeatherDisplay:10.37,2013-09-11 10:22:00,
2013-09-11 12:27:00,61.7,55.8,30.00,NW,317,11.5,11.5,81,0.01,RA,SKC,0.50,426.2,WeatherDisplay:10.37,2013-09-11 10:27:00,
2013-09-11 12:32:00,62.0,56.1,30.00,NW,311,9.2,9.2,81,0.01,BKN,SKC,0.50,297.9,WeatherDisplay:10.37,2013-09-11 10:32:00,
2013-09-11 12:37:00,62.5,56.6,30.00,NW,313,15.0,15.0,81,0.01,BKN,SKC,0.50,323.2,WeatherDisplay:10.37,2013-09-11 10:37:00,
2013-09-11 12:42:00,62.2,56.0,30.00,WNW,293,11.5,11.5,80,0.01,BKN,SKC,0.50,333.3,WeatherDisplay:10.37,2013-09-11 10:42:00,
2013-09-11 12:47:00,62.2,56.6,30.00,WNW,299,13.8,13.8,82,0.01,BKN,SKC,0.50,325.2,WeatherDisplay:10.37,2013-09-11 10:47:00,
2013-09-11 12:52:00,62.0,56.4,30.00,NW,312,10.4,10.4,82,0.01,BKN,SKC,0.50,257.6,WeatherDisplay:10.37,2013-09-11 10:52:00,
2013-09-11 12:57:00,62.3,56.7,30.00,NW,307,13.8,13.8,82,0.01,BKN,SKC,0.50,641.4,WeatherDisplay:10.37,2013-09-11 10:57:00,
2013-09-11 13:02:00,62.5,56.2,30.00,NNW,327,18.4,18.4,80,0.02,RA,SKC,0.51,248.5,WeatherDisplay:10.37,2013-09-11 11:02:00,
2013-09-11 13:07:00,62.4,56.5,30.00,NW,313,19.6,19.6,81,0.02,RA,SKC,0.51,273.7,WeatherDisplay:10.37,2013-09-11 11:07:00,
2013-09-11 13:12:00,62.4,56.5,30.01,NW,311,19.6,19.6,81,0.02,BKN,SKC,0.51,344.4,WeatherDisplay:10.37,2013-09-11 11:12:00,
2013-09-11 13:17:00,62.4,56.5,30.01,NW,315,9.2,9.2,81,0.02,BKN,SKC,0.51,202.0,WeatherDisplay:10.37,2013-09-11 11:17:00,
2013-09-11 13:22:00,62.4,56.1,30.01,NW,317,18.4,18.4,80,0.01,SCT,SKC,0.51,759.5,WeatherDisplay:10.37,2013-09-11 11:22:00,
2013-09-11 13:27:00,62.7,56.8,30.01,NW,311,7.0,7.0,81,0.01,FEW,SKC,0.51,749.4,WeatherDisplay:10.37,2013-09-11 11:27:00,
2013-09-11 13:32:00,62.8,56.2,30.00,NW,315,15.0,15.0,79,0.01,SCT,SKC,0.51,316.1,WeatherDisplay:10.37,2013-09-11 11:32:00,
2013-09-11 13:37:00,63.1,55.8,30.01,NNW,342,13.0,13.0,77,0.01,SCT,SKC,0.16,353.5,WeatherDisplay:10.37,2013-09-11 11:37:00,
2013-09-11 13:42:00,63.0,55.7,30.01,NW,311,16.1,16.1,77,0.01,RA,SKC,0.16,278.8,WeatherDisplay:10.37,2013-09-11 11:42:00,
2013-09-11 13:47:00,63.0,55.3,30.01,NW,322,16.1,16.1,76,0.01,RA,SKC,0.16,321.2,WeatherDisplay:10.37,2013-09-11 11:47:00,
2013-09-11 13:52:00,63.1,55.4,30.01,NW,316,17.3,17.3,76,0.01,BKN,SKC,0.17,209.1,WeatherDisplay:10.37,2013-09-11 11:52:00,
2013-09-11 13:57:00,62.8,55.5,30.01,NW,313,13.8,13.8,77,0.02,RA,SKC,0.17,250.5,WeatherDisplay:10.37,2013-09-11 11:57:00,
2013-09-11 14:02:00,63.1,56.1,30.00,NW,308,16.0,16.0,78,0.02,RA,SKC,0.17,859.5,WeatherDisplay:10.37,2013-09-11 12:02:00,
2013-09-11 14:07:00,63.6,56.3,30.01,NNW,335,12.7,12.7,77,0.01,FEW,SKC,0.17,372.7,WeatherDisplay:10.37,2013-09-11 12:07:00,
2013-09-11 14:12:00,63.4,55.7,30.00,NW,312,10.4,10.4,76,0.01,BKN,SKC,0.17,391.9,WeatherDisplay:10.37,2013-09-11 12:12:00,
2013-09-11 14:17:00,63.5,55.4,30.00,NW,311,17.3,17.3,75,0.01,SCT,SKC,0.17,273.7,WeatherDisplay:10.37,2013-09-11 12:17:00,
2013-09-11 14:22:00,63.5,55.4,30.01,NNW,344,11.5,11.5,75,0.01,BKN,SKC,0.17,358.6,WeatherDisplay:10.37,2013-09-11 12:22:00,
2013-09-11 14:27:00,63.1,54.7,30.01,NW,319,19.6,19.6,74,0.02,RA,SKC,0.17,405.0,WeatherDisplay:10.37,2013-09-11 12:27:00,
2013-09-11 14:32:00,63.2,54.4,30.01,NW,325,18.4,18.4,73,0.02,RA,SKC,0.17,381.8,WeatherDisplay:10.37,2013-09-11 12:32:00,
2013-09-11 14:37:00,63.4,55.3,30.01,NW,316,18.4,18.4,75,0.02,BKN,SKC,0.17,353.5,WeatherDisplay:10.37,2013-09-11 12:37:00,
2013-09-11 14:42:00,63.4,56.1,30.01,NW,316,13.8,13.8,77,0.02,BKN,SKC,0.17,257.6,WeatherDisplay:10.37,2013-09-11 12:42:00,
2013-09-11 14:47:00,63.4,56.1,30.01,NW,313,19.6,19.6,77,0.02,BKN,SKC,0.17,587.8,WeatherDisplay:10.37,2013-09-11 12:47:00,
2013-09-11 14:52:00,63.1,55.4,30.01,NW,320,19.6,19.6,76,0.02,BKN,SKC,0.17,290.9,WeatherDisplay:10.37,2013-09-11 12:52:00,
2013-09-11 14:57:00,62.7,55.0,30.00,NNW,328,16.1,16.1,76,0.01,BKN,SKC,0.17,283.8,WeatherDisplay:10.37,2013-09-11 12:57:00,
2013-09-11 15:02:00,62.8,55.1,30.00,NNW,330,19.6,19.6,76,0.01,BKN,SKC,0.17,333.3,WeatherDisplay:10.37,2013-09-11 13:02:00,
2013-09-11 15:07:00,62.7,55.4,30.01,NW,317,18.4,18.4,77,0.01,BKN,SKC,0.17,259.6,WeatherDisplay:10.37,2013-09-11 13:07:00,
2013-09-11 15:12:00,62.6,55.3,30.00,WSW,248,19.6,19.6,77,0.01,BKN,SKC,0.17,180.8,WeatherDisplay:10.37,2013-09-11 13:12:00,
2013-09-11 15:17:00,62.6,55.6,30.00,NW,315,16.1,16.1,78,0.02,RA,SKC,0.18,257.6,WeatherDisplay:10.37,2013-09-11 13:17:00,
2013-09-11 15:22:00,63.0,56.0,30.00,NW,311,19.6,19.6,78,0.02,RA,SKC,0.18,735.3,WeatherDisplay:10.37,2013-09-11 13:22:00,
2013-09-11 15:27:00,63.0,55.7,30.00,NW,322,19.6,19.6,77,0.01,CLR,SKC,0.18,761.5,WeatherDisplay:10.37,2013-09-11 13:27:00,
2013-09-11 15:32:00,63.1,55.8,30.00,NW,312,12.7,12.7,77,0.01,FEW,SKC,0.18,259.6,WeatherDisplay:10.37,2013-09-11 13:32:00,
2013-09-11 15:37:00,63.4,56.4,30.00,NW,323,10.4,10.4,78,0.01,BKN,SKC,0.18,290.9,WeatherDisplay:10.37,2013-09-11 13:37:00,
2013-09-11 15:42:00,63.8,56.1,30.00,WNW,292,17.3,17.3,76,0.01,FEW,SKC,0.18,703.0,WeatherDisplay:10.37,2013-09-11 13:42:00,
2013-09-11 15:47:00,63.5,55.4,30.00,NW,309,17.3,17.3,75,0.02,RA,SKC,0.19,703.0,WeatherDisplay:10.37,2013-09-11 13:47:00,
2013-09-11 15:52:00,63.5,55.8,30.00,NW,311,17.3,17.3,76,0.02,RA,SKC,0.19,220.2,WeatherDisplay:10.37,2013-09-11 13:52:00,
2013-09-11 15:57:00,63.6,55.5,30.00,NNW,335,21.9,21.9,75,0.02,FEW,SKC,0.19,280.8,WeatherDisplay:10.37,2013-09-11 13:57:00,
2013-09-11 16:02:00,63.3,55.2,30.00,NNW,336,15.0,15.0,75,0.02,FEW,SKC,0.19,168.7,WeatherDisplay:10.37,2013-09-11 14:02:00,
2013-09-11 16:07:00,63.1,55.0,30.00,NNW,333,17.3,17.3,75,0.02,BKN,SKC,0.19,290.9,WeatherDisplay:10.37,2013-09-11 14:07:00,
2013-09-11 16:12:00,62.7,54.7,30.01,NNW,333,19.6,19.6,75,0.02,BKN,SKC,0.19,238.4,WeatherDisplay:10.37,2013-09-11 14:12:00,
2013-09-11 16:17:00,63.0,54.9,30.01,NNE,17,19.6,19.6,75,0.02,BKN,SKC,0.19,524.2,WeatherDisplay:10.37,2013-09-11 14:17:00,
2013-09-11 16:22:00,63.4,55.0,30.01,NW,312,16.1,16.1,74,0.02,RA,SKC,0.20,515.1,WeatherDisplay:10.37,2013-09-11 14:22:00,
2013-09-11 16:27:00,63.5,55.1,30.01,NW,307,20.0,20.0,74,0.02,RA,SKC,0.20,518.1,WeatherDisplay:10.37,2013-09-11 14:27:00,
2013-09-11 16:32:00,63.5,56.2,30.00,NW,306,19.6,19.6,77,0.02,SCT,SKC,0.20,220.2,WeatherDisplay:10.37,2013-09-11 14:32:00,
2013-09-11 16:37:00,63.4,56.1,30.01,NW,311,19.6,19.6,77,0.02,BKN,SKC,0.20,365.6,WeatherDisplay:10.37,2013-09-11 14:37:00,
2013-09-11 16:42:00,63.7,56.4,30.01,NW,321,15.0,15.0,77,0.02,FEW,SKC,0.20,175.7,WeatherDisplay:10.37,2013-09-11 14:42:00,
2013-09-11 16:47:00,63.3,56.3,30.01,NNW,348,18.4,18.4,78,0.02,BKN,SKC,0.20,147.5,WeatherDisplay:10.37,2013-09-11 14:47:00,
2013-09-11 16:52:00,62.9,56.3,30.01,NNW,341,21.9,21.9,79,0.02,BKN,SKC,0.20,201.0,WeatherDisplay:10.37,2013-09-11 14:52:00,
2013-09-11 16:57:00,62.9,56.3,30.01,NW,326,16.1,16.1,79,0.02,BKN,SKC,0.20,255.5,WeatherDisplay:10.37,2013-09-11 14:57:00,
2013-09-11 17:02:00,63.0,56.4,30.01,NW,315,19.6,19.6,79,0.02,RA,SKC,0.20,374.7,WeatherDisplay:10.37,2013-09-11 15:02:00,
2013-09-11 17:07:00,63.3,56.3,30.01,NNW,331,17.3,17.3,78,0.02,RA,SKC,0.20,328.3,WeatherDisplay:10.37,2013-09-11 15:07:00,
2013-09-11 17:12:00,63.4,56.8,30.01,NNW,336,13.0,13.0,79,0.02,RA,SKC,0.20,222.2,WeatherDisplay:10.37,2013-09-11 15:12:00,
2013-09-11 17:17:00,63.2,55.9,30.01,NW,321,19.6,19.6,77,0.02,BKN,SKC,0.20,194.9,WeatherDisplay:10.37,2013-09-11 15:17:00,
2013-09-11 17:22:00,62.9,55.2,30.01,North,350,19.6,19.6,76,0.02,BKN,SKC,0.20,145.4,WeatherDisplay:10.37,2013-09-11 15:22:00,
2013-09-11 17:27:00,62.7,55.0,30.01,NW,321,18.4,18.4,76,0.02,BKN,SKC,0.20,121.2,WeatherDisplay:10.37,2013-09-11 15:27:00,
2013-09-11 17:32:00,62.8,55.5,30.01,NW,326,16.1,16.1,77,0.02,BKN,SKC,0.21,367.6,WeatherDisplay:10.37,2013-09-11 15:32:00,
2013-09-11 17:37:00,63.0,55.3,30.01,NNW,327,18.4,18.4,76,0.02,RA,SKC,0.21,121.2,WeatherDisplay:10.37,2013-09-11 15:37:00,
2013-09-11 17:42:00,63.0,55.7,30.01,NNW,337,17.3,17.3,77,0.02,RA,SKC,0.21,122.2,WeatherDisplay:10.37,2013-09-11 15:42:00,
2013-09-11 17:47:00,62.9,55.9,30.01,NNW,337,21.9,21.9,78,0.02,RA,SKC,0.21,156.6,WeatherDisplay:10.37,2013-09-11 15:47:00,
2013-09-11 17:52:00,62.7,55.7,30.01,NW,307,19.6,19.6,78,0.02,BKN,SKC,0.21,312.1,WeatherDisplay:10.37,2013-09-11 15:52:00,
2013-09-11 17:57:00,62.7,55.7,30.01,NNW,340,12.7,13.4,78,0.02,BKN,SKC,0.21,91.9,WeatherDisplay:10.37,2013-09-11 15:57:00,
2013-09-11 18:02:00,62.6,56.0,30.01,NNW,336,13.8,13.8,79,0.02,BKN,SKC,0.21,69.7,WeatherDisplay:10.37,2013-09-11 16:02:00,
2013-09-11 18:07:00,62.5,56.2,30.01,NNW,338,16.1,16.1,80,0.02,BKN,SKC,0.21,149.5,WeatherDisplay:10.37,2013-09-11 16:07:00,
2013-09-11 18:12:00,62.6,56.7,30.02,NNW,337,12.7,12.7,81,0.02,BKN,SKC,0.21,283.8,WeatherDisplay:10.37,2013-09-11 16:12:00,
2013-09-11 18:17:00,62.6,56.7,30.01,NW,323,10.4,10.4,81,0.02,RA,SKC,0.22,222.2,WeatherDisplay:10.37,2013-09-11 16:17:00,
2013-09-11 18:22:00,62.3,56.0,30.01,NW,325,16.1,16.1,80,0.02,RA,SKC,0.22,60.6,WeatherDisplay:10.37,2013-09-11 16:22:00,
2013-09-11 18:27:00,61.9,56.0,30.01,NW,313,15.0,15.0,81,0.02,RA,SKC,0.22,101.0,WeatherDisplay:10.37,2013-09-11 16:27:00,
2013-09-11 18:32:00,61.7,56.5,30.01,NNW,328,21.9,21.9,83,0.02,BKN,SKC,0.22,83.8,WeatherDisplay:10.37,2013-09-11 16:32:00,
2013-09-11 18:37:00,61.7,56.5,30.02,NNW,329,11.5,11.5,83,0.02,BKN,SKC,0.22,51.5,WeatherDisplay:10.37,2013-09-11 16:37:00,
2013-09-11 18:42:00,61.5,56.3,30.01,NW,316,19.6,19.6,83,0.02,BKN,SKC,0.22,72.7,WeatherDisplay:10.37,2013-09-11 16:42:00,
2013-09-11 18:47:00,61.5,56.6,30.01,NW,314,17.3,17.3,84,0.02,BKN,SKC,0.22,83.8,WeatherDisplay:10.37,2013-09-11 16:47:00,
2013-09-11 18:52:00,61.3,56.4,30.01,North,350,18.4,18.4,84,0.02,BKN,SKC,0.22,65.7,WeatherDisplay:10.37,2013-09-11 16:52:00,
2013-09-11 18:57:00,61.0,56.5,30.02,NW,318,19.6,19.6,85,0.02,BKN,SKC,0.22,42.4,WeatherDisplay:10.37,2013-09-11 16:57:00,
2013-09-11 19:02:00,60.5,56.3,30.01,NW,309,23.0,23.0,86,0.02,BKN,SKC,0.22,25.3,WeatherDisplay:10.37,2013-09-11 17:02:00,
2013-09-11 19:07:00,60.1,56.2,30.02,NW,325,19.6,19.6,87,0.01,BKN,SKC,0.22,21.2,WeatherDisplay:10.37,2013-09-11 17:07:00,
2013-09-11 19:12:00,59.9,56.3,30.02,NW,319,19.6,19.6,88,0.01,BKN,SKC,0.22,12.1,WeatherDisplay:10.37,2013-09-11 17:12:00,
2013-09-11 19:17:00,59.7,56.5,30.02,NNW,331,17.3,17.3,89,0.01,BKN,SKC,0.22,19.2,WeatherDisplay:10.37,2013-09-11 17:17:00,
2013-09-11 19:22:00,59.5,56.6,30.02,WNW,294,13.8,13.8,90,0.01,BKN,SKC,0.22,16.2,WeatherDisplay:10.37,2013-09-11 17:22:00,
2013-09-11 19:27:00,59.3,56.7,30.02,NNW,334,11.5,11.5,91,0.01,BKN,SKC,0.22,12.1,WeatherDisplay:10.37,2013-09-11 17:27:00,
2013-09-11 19:32:00,59.2,56.6,30.02,NNW,348,18.4,18.4,91,0.01,BKN,SKC,0.22,7.1,WeatherDisplay:10.37,2013-09-11 17:32:00,
2013-09-11 19:37:00,59.1,56.5,30.02,NNW,328,16.1,16.1,91,0.02,RA,SKC,0.23,7.1,WeatherDisplay:10.37,2013-09-11 17:37:00,
2013-09-11 19:42:00,59.0,56.4,30.02,NW,314,19.6,19.6,91,0.02,RA,SKC,0.23,5.0,WeatherDisplay:10.37,2013-09-11 17:42:00,
2013-09-11 19:47:00,58.9,56.3,30.02,NW,316,16.1,16.1,91,0.02,RA,SKC,0.23,0.0,WeatherDisplay:10.37,2013-09-11 17:47:00,
2013-09-11 19:52:00,58.8,56.2,30.02,NNW,328,19.6,19.6,91,0.02,RA,SKC,0.23,0.0,WeatherDisplay:10.37,2013-09-11 17:52:00,
2013-09-11 19:57:00,58.7,56.4,30.03,NNW,327,16.1,16.1,92,0.02,RA,SKC,0.23,0.0,WeatherDisplay:10.37,2013-09-11 17:57:00,
2013-09-11 20:02:00,58.6,56.3,30.03,NNW,336,11.5,11.5,92,0.01,BKN,SKC,0.23,0.0,WeatherDisplay:10.37,2013-09-11 18:02:00,
2013-09-11 20:07:00,58.6,56.6,30.03,NW,323,13.8,13.8,93,0.01,BKN,SKC,0.23,0.0,WeatherDisplay:10.37,2013-09-11 18:07:00,
2013-09-11 20:12:00,58.6,56.3,30.03,NW,326,13.8,13.8,92,0.01,BKN,SKC,0.23,0.0,WeatherDisplay:10.37,2013-09-11 18:12:00,
2013-09-11 20:17:00,58.7,56.4,30.03,NW,309,11.5,11.5,92,0.01,BKN,SKC,0.23,0.0,WeatherDisplay:10.37,2013-09-11 18:17:00,
2013-09-11 20:22:00,58.8,56.5,30.03,NW,306,14.0,14.0,92,0.01,BKN,SKC,0.23,0.0,WeatherDisplay:10.37,2013-09-11 18:22:00,
2013-09-11 20:27:00,58.9,56.3,30.03,North,10,17.3,17.3,91,0.01,BKN,SKC,0.23,0.0,WeatherDisplay:10.37,2013-09-11 18:27:00,
2013-09-11 20:32:00,59.0,56.1,30.03,NNW,344,20.7,20.7,90,0.01,BKN,SKC,0.23,0.0,WeatherDisplay:10.37,2013-09-11 18:32:00,
2013-09-11 20:37:00,59.0,56.1,30.03,NNW,343,13.8,13.8,90,0.01,BKN,SKC,0.23,0.0,WeatherDisplay:10.37,2013-09-11 18:37:00,
2013-09-11 20:42:00,59.0,56.1,30.03,NNW,329,16.1,16.1,90,0.01,BKN,SKC,0.23,0.0,WeatherDisplay:10.37,2013-09-11 18:42:00,
2013-09-11 20:47:00,59.0,55.8,30.03,NNW,327,13.8,13.8,89,0.01,BKN,SKC,0.23,0.0,WeatherDisplay:10.37,2013-09-11 18:47:00,
2013-09-11 20:52:00,59.1,55.9,30.04,NNW,332,19.6,19.6,89,0.01,BKN,SKC,0.23,0.0,WeatherDisplay:10.37,2013-09-11 18:52:00,
2013-09-11 20:56:00,59.4,55.5,30.04,NNW,329,17.3,17.3,87,0.02,RA,SKC,0.24,0.0,WeatherDisplay:10.37,2013-09-11 18:56:00,
2013-09-11 20:57:00,59.2,55.6,30.04,NNW,327,17.3,17.3,88,0.02,RA,SKC,0.24,0.0,WeatherDisplay:10.37,2013-09-11 18:57:00,
2013-09-11 21:02:00,59.3,55.4,30.04,NW,311,17.3,17.3,87,0.02,RA,SKC,0.24,0.0,WeatherDisplay:10.37,2013-09-11 19:02:00,
2013-09-11 21:12:00,59.5,55.6,30.04,NW,325,13.8,13.8,87,0.02,RA,SKC,0.24,0.0,WeatherDisplay:10.37,2013-09-11 19:12:00,
2013-09-11 21:17:00,59.5,55.6,30.04,NW,318,13.8,13.8,87,0.02,RA,SKC,0.24,0.0,WeatherDisplay:10.37,2013-09-11 19:17:00,
2013-09-11 21:22:00,59.5,55.6,30.04,NW,321,13.8,13.8,87,0.02,RA,SKC,0.24,0.0,WeatherDisplay:10.37,2013-09-11 19:22:00,
2013-09-11 21:23:00,59.5,55.3,30.04,NW,317,11.5,11.5,86,0.02,RA,SKC,0.24,0.0,WeatherDisplay:10.37,2013-09-11 19:23:00,
2013-09-11 21:27:00,59.5,55.6,30.04,NNW,340,11.5,11.5,87,0.02,RA,SKC,0.24,0.0,WeatherDisplay:10.37,2013-09-11 19:27:00,
2013-09-11 21:32:00,59.5,55.3,30.04,NW,311,11.5,11.5,86,0.02,RA,SKC,0.24,0.0,WeatherDisplay:10.37,2013-09-11 19:32:00,
2013-09-11 21:38:00,59.5,55.3,30.04,NNW,336,11.5,11.5,86,0.02,RA,SKC,0.24,0.0,WeatherDisplay:10.37,2013-09-11 19:38:00,
2013-09-11 21:43:00,59.4,55.2,30.04,NW,320,12.0,12.0,86,0.02,RA,SKC,0.24,0.0,WeatherDisplay:10.37,2013-09-11 19:43:00,
2013-09-11 21:48:00,59.4,55.2,30.04,NW,315,13.8,13.8,86,0.02,RA,SKC,0.24,0.0,WeatherDisplay:10.37,2013-09-11 19:48:00,
2013-09-11 21:53:00,59.4,55.2,30.04,NW,317,12.7,12.7,86,0.02,RA,SKC,0.24,0.0,WeatherDisplay:10.37,2013-09-11 19:53:00,
2013-09-11 21:58:00,59.5,55.3,30.04,NW,310,12.7,12.7,86,0.02,RA,SKC,0.24,0.0,WeatherDisplay:10.37,2013-09-11 19:58:00,
2013-09-11 22:03:00,59.5,55.0,30.04,NW,317,16.1,16.1,85,0.02,BKN,SKC,0.24,0.0,WeatherDisplay:10.37,2013-09-11 20:03:00,
2013-09-11 22:08:00,59.5,55.0,30.04,NW,311,15.0,15.0,85,0.02,BKN,SKC,0.24,0.0,WeatherDisplay:10.37,2013-09-11 20:08:00,
2013-09-11 22:13:00,59.6,55.1,30.04,NNW,327,11.5,11.5,85,0.02,BKN,SKC,0.24,0.0,WeatherDisplay:10.37,2013-09-11 20:13:00,
2013-09-11 22:18:00,59.5,55.3,30.04,NW,319,11.5,11.5,86,0.02,BKN,SKC,0.24,0.0,WeatherDisplay:10.37,2013-09-11 20:18:00,
2013-09-11 22:23:00,59.6,55.1,30.04,NW,321,11.5,11.5,85,0.02,BKN,SKC,0.24,0.0,WeatherDisplay:10.37,2013-09-11 20:23:00,
2013-09-11 22:28:00,59.6,55.1,30.04,NNW,331,11.0,11.0,85,0.01,BKN,SKC,0.24,0.0,WeatherDisplay:10.37,2013-09-11 20:28:00,
2013-09-11 22:33:00,59.5,55.3,30.04,NNW,338,10.4,10.4,86,0.01,BKN,SKC,0.24,0.0,WeatherDisplay:10.37,2013-09-11 20:33:00,
2013-09-11 22:38:00,59.3,55.4,30.05,NW,319,12.7,12.7,87,0.01,BKN,SKC,0.24,0.0,WeatherDisplay:10.37,2013-09-11 20:38:00,
2013-09-11 22:43:00,59.0,55.4,30.04,NW,306,11.5,11.5,88,0.02,RA,SKC,0.24,0.0,WeatherDisplay:10.37,2013-09-11 20:43:00,
2013-09-11 22:48:00,58.7,55.2,30.04,NW,310,8.1,8.1,88,0.02,RA,SKC,0.24,0.0,WeatherDisplay:10.37,2013-09-11 20:48:00,
2013-09-11 22:53:00,58.7,55.5,30.04,NW,311,5.8,5.8,89,0.02,RA,SKC,0.24,0.0,WeatherDisplay:10.37,2013-09-11 20:53:00,
2013-09-11 22:58:00,58.7,55.5,30.05,NW,311,4.6,4.6,89,0.02,BKN,SKC,0.24,0.0,WeatherDisplay:10.37,2013-09-11 20:58:00,
2013-09-11 23:03:00,58.7,55.8,30.05,NW,315,8.1,8.1,90,0.01,BKN,SKC,0.24,0.0,WeatherDisplay:10.37,2013-09-11 21:03:00,
2013-09-11 23:08:00,58.7,55.8,30.05,NNW,336,14.0,14.0,90,0.01,BKN,SKC,0.24,0.0,WeatherDisplay:10.37,2013-09-11 21:08:00,
2013-09-11 23:13:00,58.2,55.3,30.05,NW,312,11.5,11.5,90,0.01,BKN,SKC,0.24,0.0,WeatherDisplay:10.37,2013-09-11 21:13:00,
2013-09-11 23:18:00,57.8,54.9,30.05,NW,313,12.7,12.7,90,0.01,BKN,SKC,0.24,0.0,WeatherDisplay:10.37,2013-09-11 21:18:00,
2013-09-11 23:23:00,57.7,54.8,30.05,NNW,327,11.5,11.5,90,0.01,BKN,SKC,0.24,0.0,WeatherDisplay:10.37,2013-09-11 21:23:00,
2013-09-11 23:28:00,57.7,55.1,30.05,NNW,340,8.1,8.1,91,0.01,BKN,SKC,0.24,0.0,WeatherDisplay:10.37,2013-09-11 21:28:00,
2013-09-11 23:33:00,57.6,55.0,30.05,NNW,336,8.1,8.1,91,0.01,BKN,SKC,0.24,0.0,WeatherDisplay:10.37,2013-09-11 21:33:00,
2013-09-11 23:38:00,57.5,55.2,30.05,NNW,339,6.0,6.0,92,0.01,BKN,SKC,0.24,0.0,WeatherDisplay:10.37,2013-09-11 21:38:00,
2013-09-11 23:43:00,57.4,55.1,30.05,NNW,340,5.8,5.8,92,0.01,BKN,SKC,0.24,0.0,WeatherDisplay:10.37,2013-09-11 21:43:00,
2013-09-11 23:48:00,57.4,55.1,30.05,NNW,336,5.8,5.8,92,0.01,BKN,SKC,0.24,0.0,WeatherDisplay:10.37,2013-09-11 21:48:00,
2013-09-11 23:53:00,57.4,55.4,30.05,NNW,327,6.0,6.0,93,0.00,BKN,SKC,0.24,0.0,WeatherDisplay:10.37,2013-09-11 21:53:00,
2013-09-11 23:58:00,57.5,55.5,30.05,NW,323,6.9,6.9,93,0.00,BKN,SKC,0.24,0.0,WeatherDisplay:10.37,2013-09-11 21:58:00,